CZ-6A DEB, 60635

Orbit data source: Space-Track

CZ-6A DEB, 60635 is space debris in LEO originally from a launch on Tue, 06 Aug 2024 UTC launched from the Taiyaun Space Center, China (TSC). Debris objects in space refer to the collection of defunct objects orbiting the Earth. Examples of debris include non-operational satellites, rocket bodies, and fragments generated from explosions, collisions, or faulty payload assembly.

Loading next visibility...
Identifier
60635, 2024-140AL
Orbit
LEO
Country
Flag of CNCN / PRC
Related business
Manufacturer
SAST
Mission
Spacecraft
Bus & Motor
Unknown
Mass
Unknown
Launch date (UTC)
2024-08-06 (2 years ago)
Launch vehicle
Unknown
Launch site
Taiyaun Space Center, China (TSC)
Object type
Payload
Rocket body
Debris
Shape & HBR
Unknown shape, 0.3 m
Radar Cross Section
Medium (>0.1 m² and <1 m²)

Expand to show TLE details & history
Last TLE update: 14 hours ago

TLE from 14 hours ago
0 CZ-6A DEB
1 60635U 24140AL  26171.26440358  .00000325  00000-0  19931-3 0  9996
2 60635  88.7947 261.1083 0146662 271.5784  86.8599 13.98445304 95162
Epoch: 2026-06-20T06:20Z
TLE epoch observation values (Epoch: 2026-06-20T06:20:44.469Z)
Latitude
-0.00003°
Longitude
-102.55851°
Altitude
897.92 km
Speed
7.405 km/s
True Right ascension
17h 24m 25s
True Declination
0° 00' 00"
Sunlit
Object was in full shadow at epoch
Visualization orbit readout
Latitude
Unknown
Longitude
Unknown
Altitude
Unknown
Speed
Unknown
Apparent Right ascension
Unknown
Apparent Declination
Unknown
Sunlit
N/A
Visualization observer readout
Local Sidereal Time
07:20:36
Azimuth
Unknown
Elevation
Unknown
Doppler factor
Unknown
Orbital elements
Apogee altitude
1,002.853 km
Perigee altitude
789.48 km
Semi-major axis
7,274.303 km
Eccentricity
0.01467
Inclination
88.7947°
RAAN
261.1083°
Arg. of periapsis
271.5784°
True anomaly
88.53945°
Mean anomaly
86.8599°
Eccentric anomaly
87.69953°
Mean motion
3.49829 °/min
Orbital period
102.91 mins
BSTAR
0.00019931
Loading maneuver chart data...
Computing Atmospheric mass density...
Loading historical data...
Loading historical data...
Loading historical data...
Loading historical data...
Loading historical data...
Loading historical data...
Loading historical data...

Documentation

Showing up to 5 results
|